This is the latest recevied weather packets stored in our database for station/object WA1OUI. If no packets are shown the sender has not sent any weather packets the latest 10 day(s).
| Time | Temp. | Humidity | Pressure | Rain* | Wind** | Luminosity | Snow |
|---|---|---|---|---|---|---|---|
| 1777807880 | 5.56° C | 68% | 1007.7 hPa | 0 mm | - | 61 W/m² | - |
| 1777806971 | 5° C | 71% | 1007.4 hPa | 0 mm | - | 25 W/m² | - |
| 1777806667 | 4.44° C | 68% | 1007.6 hPa | 0 mm | - | 23 W/m² | - |
| 1777806363 | 4.44° C | 70% | 1007.5 hPa | 0 mm | - | 22 W/m² | - |
| 1777805756 | 4.44° C | 70% | 1007.4 hPa | 0 mm | - | 23 W/m² | - |
| 1777804244 | 3.89° C | 70% | 1007.5 hPa | 0 mm | - | 14 W/m² | - |
| 1777803032 | 3.89° C | 72% | 1007.2 hPa | 0 mm | - | 8 W/m² | - |
| 1777802729 | 3.89° C | 71% | 1007.3 hPa | 0 mm | - | 6 W/m² | - |
| 1777802427 | 3.89° C | 71% | 1007.3 hPa | 0 mm | - | 5 W/m² | - |
| 1777802124 | 3.89° C | 72% | 1007.3 hPa | 0 mm | - | 3 W/m² | - |
| 1777801822 | 3.89° C | 71% | 1007.1 hPa | 0 mm | - | 2 W/m² | - |
| 1777801215 | 3.89° C | 72% | 1007.1 hPa | 0 mm | - | 1 W/m² | - |
| 1777800913 | 3.89° C | 72% | 1007.1 hPa | 0 mm | - | 0 W/m² | - |
| 1777800609 | 3.89° C | 72% | 1007.4 hPa | 0 mm | - | 0 W/m² | - |
| 1777800305 | 3.89° C | 71% | 1007.2 hPa | 0 mm | - | 0 W/m² | - |
| 1777800001 | 3.89° C | 71% | 1007.3 hPa | 0 mm | - | 0 W/m² | - |
| 1777799696 | 3.89° C | 71% | 1007.4 hPa | 0 mm | - | 0 W/m² | - |
| 1777799394 | 3.89° C | 70% | 1007.6 hPa | 0 mm | - | 0 W/m² | - |
| 1777799090 | 3.89° C | 72% | 1007.6 hPa | 0 mm | - | 0 W/m² | - |
| 1777798785 | 3.89° C | 69% | 1007.6 hPa | 0 mm | - | 0 W/m² | - |
| 1777798482 | 4.44° C | 69% | 1007.8 hPa | 0 mm | - | 0 W/m² | - |
| 1777798179 | 4.44° C | 68% | 1007.9 hPa | 0 mm | - | 0 W/m² | - |
| 1777797574 | 4.44° C | 68% | 1007.5 hPa | 0 mm | - | 0 W/m² | - |
| 1777797271 | 4.44° C | 68% | 1007.8 hPa | 0 mm | - | 0 W/m² | - |
| 1777796968 | 4.44° C | 68% | 1007.9 hPa | 0 mm | - | 0 W/m² | - |
* Rain latest hour (hover to see other rain measurements)
** Current wind speed in m/s (hover to see current wind gust speed)